Toledo, OH

5:39 AM EST on January 19, 2018 (GMT -0500)
Toledo Express

Weather History for KTOL - June, 2012

Change the Weather History Date:

Wednesday, June 6, 2012

  Actual Average Record
Temperature  
Mean Temperature 63 °F 67 °F  
Max Temperature 78 °F 78 °F 96 °F (1925)
Min Temperature 48 °F 56 °F 38 °F (1998)
Degree Days  
Heating Degree Days 2 2  
Month to date heating degree days 23 16  
Since 1 June heating degree days 23 16  
Since 1 July heating degree days 5040 6126  
Cooling Degree Days 0 4  
Month to date cooling degree days 4 21  
Year to date cooling degree days 124 74  
Since 1 June cooling degree days 4 21  
Growing Degree Days 13 (Base 50)    
Moisture  
Dew Point 46 °F    
Average Humidity 59    
Maximum Humidity 86    
Minimum Humidity 31    
Precipitation  
Precipitation 0.00 in 0.13 in 1.18 in (1986)
Month to date precipitation 0.26 0.73  
Year to date precipitation 11.54 14.10  
Snow  
Snow 0.00 in 0.00 in - ()
Month to date snowfall 0.0 0.0  
Since 1 June snowfall 0.0 0.0  
Since 1 July snowfall 20.8 37.6  
Snow Depth 0.00 in    
Sea Level Pressure  
Sea Level Pressure 30.03 in    
Wind  
Wind Speed 3 mph (NE)    
Max Wind Speed 13 mph    
Max Gust Speed 18 mph    
Visibility 10 miles    
Events      
T = Trace of Precipitation, MM = Missing Value Source: NWS Daily Summary

Daily Weather History Graph

Daily Weather History Graph

Search for Another Location

Airport or City:

Trip Planner

Search our weather history database for the weather conditions in past years. The results will help you decide how hot, cold, wet, or windy it might be!

Date:

Astronomy

Jun. 06, 2012 Rise Set
Actual Time 6:01 AM EDT 9:06 PM EDT
Civil Twilight 5:27 AM EDT 9:40 PM EDT
Nautical Twilight 4:44 AM EDT 10:23 PM EDT
Astronomical Twilight 3:53 AM EDT 11:14 PM EDT
Moon 11:16 PM EDT (6/6) 8:22 AM EDT (6/6)
Length of Visible Light 16h 12m
Length of Day
15h 05m
Waning Gibbous, 93% of the Moon is Illuminated
Jun 6
Waning Gibbous
Jun 11
Last Quarter
Jun 19
New
Jun 26
First Quarter
Jul 3
Full

Hourly Weather History & Observations

Time (EDT) Temp. Dew Point Humidity Pressure Visibility Wind Dir Wind Speed Gust Speed Precip Events Conditions
12:52 AM 51.1 °F 46.9 °F 86% 30.01 in 10.0 mi Calm Calm - N/A   Mostly Cloudy
1:52 AM 53.1 °F 46.0 °F 77% 30.01 in 10.0 mi Calm Calm - N/A   Partly Cloudy
2:52 AM 51.1 °F 46.0 °F 83% 30.01 in 10.0 mi Calm Calm - N/A   Clear
3:52 AM 51.1 °F 46.0 °F 83% 30.01 in 10.0 mi Calm Calm - N/A   Clear
4:52 AM 51.1 °F 46.9 °F 86% 30.01 in 10.0 mi Calm Calm - N/A   Clear
5:52 AM 48.9 °F 45.0 °F 86% 30.03 in 10.0 mi Calm Calm - N/A   Clear
6:52 AM 51.1 °F 46.9 °F 86% 30.05 in 9.0 mi Calm Calm - N/A   Clear
7:52 AM 55.9 °F 48.0 °F 75% 30.05 in 10.0 mi North 4.6 mph - N/A   Clear
8:52 AM 62.1 °F 48.9 °F 62% 30.06 in 10.0 mi North 8.1 mph - N/A   Clear
9:52 AM 66.0 °F 46.9 °F 50% 30.07 in 10.0 mi North 6.9 mph - N/A   Clear
10:52 AM 68.0 °F 46.0 °F 45% 30.07 in 10.0 mi North 4.6 mph - N/A   Clear
11:52 AM 71.1 °F 44.1 °F 38% 30.06 in 10.0 mi NE 5.8 mph - N/A   Clear
12:52 PM 73.0 °F 45.0 °F 37% 30.05 in 10.0 mi NE 8.1 mph - N/A   Clear
1:52 PM 73.9 °F 44.1 °F 34% 30.04 in 10.0 mi Variable 6.9 mph - N/A   Scattered Clouds
2:52 PM 75.9 °F 43.0 °F 31% 30.04 in 10.0 mi East 5.8 mph - N/A   Partly Cloudy
3:52 PM 73.9 °F 42.1 °F 32% 30.03 in 10.0 mi NE 5.8 mph - N/A   Mostly Cloudy
4:52 PM 73.4 °F 42.8 °F 33% 30.01 in 10.0 mi Variable 4.6 mph - N/A   Mostly Cloudy
5:52 PM 75.0 °F 43.0 °F 32% 30.00 in 10.0 mi Variable 3.5 mph - N/A   Overcast
6:52 PM 73.9 °F 44.1 °F 34% 30.00 in 10.0 mi ESE 5.8 mph - N/A   Clear
7:52 PM 71.1 °F 45.0 °F 39% 30.01 in 9.0 mi SSE 3.5 mph - N/A   Scattered Clouds
8:52 PM 68.0 °F 46.9 °F 47% 30.01 in 10.0 mi Calm Calm - N/A   Overcast
9:52 PM 64.9 °F 48.9 °F 56% 30.03 in 10.0 mi Calm Calm - N/A   Mostly Cloudy
10:52 PM 61.0 °F 48.0 °F 62% 30.04 in 10.0 mi Calm Calm - N/A   Clear
11:52 PM 60.1 °F 48.9 °F 67% 30.04 in 10.0 mi Calm Calm - N/A   Clear